STARLINK-33573 (62778 NORAD) Tracking and Keplerian Element Data

This shows tracking and keplerian element data for the satellite.

Feedback or suggestion? Click here.




ElementValue
Catalog62778
NameSTARLINK-33573
Epoch Orbit5223
Epoch Day353.67137625
Epoch Year2025
RAAN333.8705
Inclination53.1618
Eccentricity0.0001133
Argument of Perigee85.2178
Mean Anonmoly274.8952
Mean Motion15.3019887
Decay Rate0.00016707
L11 62778U 25015W 25353.67137625 .00016707 00000+0 57495-3 0 9991
L22 62778 53.1618 333.8705 0001133 85.2178 274.8952 15.30198870 52235



Live tracking and technical data element details for STARLINK-33573 (NORAD 62778). STARLINK-33573 can be tracked NOW for your location showing map with azimuth and elevation plus other details from your city location.







IsCatalogInMostPopularTable: catalog: 62778, numindb: 266
Update: records affected: 1



GetName: 62778 STARLINK-33573

Hit Count: updated at: Sat, 18 Apr 2026 15:55:36 GMT